Location: *
(44.1142°N, 15.2278°E)
Time: 11:26:11
(UTC+00:00)

Daily predictions for brighter satellites

Satellite Brightness Start Highest point End
(mag) Time Altitude Azimuth Time Altitude Azimuth Time Altitude Azimuth
Cosmos 2298 Rocket 4.1 16:13:38 10° SSW 16:18:56 79° ESE 16:24:15 10° NNE
Starlink M 3.0 16:17:36 10° WSW 16:20:34 65° NNW 16:23:34 10° NE
Cosmos 1674 3.1 16:16:59 10° SSW 16:20:40 64° W 16:24:22 10° N
Cosmos 2237 Rocket 3.1 16:16:57 10° N 16:21:44 27° NE 16:26:27 10° ESE
Cosmos 2333 Rocket 2.2 16:16:46 10° NNW 16:22:29 68° ENE 16:28:08 10° SE
Cosmos 2154 Rocket 4.3 16:18:19 10° SSE 16:24:16 47° E 16:30:13 10° NNE
Cosmos 1812 Rocket 4.2 16:21:47 10° N 16:25:52 34° ENE 16:29:56 10° SE
Cosmos 1689 Rocket 4.5 16:25:31 10° NNW 16:27:57 23° WNW 16:30:22 10° SW
Cosmos 1726 4.3 16:25:04 10° NNW 16:28:16 29° W 16:31:28 10° SSW
Feng Yun 1-1 Rocket 4.4 16:24:30 10° SSE 16:30:12 87° ENE 16:36:05 10° NNW
Meteor 1-24 Rocket 3.6 16:25:10 10° S 16:30:27 79° E 16:35:51 10° NNE
Cosmos 1300 3.0 16:27:39 10° N 16:31:20 45° ENE 16:35:00 10° SSE
Cosmos 1908 4.3 16:28:44 10° NNW 16:32:30 50° W 16:36:13 10° S
YAOGAN 1 3.7 16:30:39 10° ESE 16:34:01 22° ENE 16:37:24 10° NNE
CSL-04 Rocket 4.5 16:33:22 10° ESE 16:38:02 29° ENE 16:42:45 10° N
Cosmos 1610 Rocket 4.5 16:33:38 10° S 16:39:40 66° E 16:45:46 10° NNE
Cosmos 1340 Rocket 3.1 16:36:23 10° N 16:40:10 42° ENE 16:43:56 10° SSE
Meteor 2-5 Rocket 4.2 16:35:37 10° SSW 16:41:05 62° WNW 16:46:38 10° N
SL-16 R/B 3.6 16:38:20 10° N 16:42:03 17° NE 16:45:16 11° E
Cosmos-2242 4.2 16:39:09 10° NNE 16:42:24 20° ENE 16:45:38 10° ESE
ATLAS 5 CENTAUR R/B 3.3 16:39:50 10° W 16:43:32 27° NW 16:47:38 10° NNE
Cosmos 1242 Rocket 2.4 16:41:11 10° S 16:44:40 89° E 16:48:14 10° N
Cosmos 2058 Rocket 4.4 16:40:46 10° NNW 16:44:54 43° W 16:49:02 10° SSW
Cosmos 1271 Rocket 2.9 16:41:17 10° SSW 16:45:00 70° W 16:48:45 10° N
Starlink AR 3.7 16:43:24 10° W 16:45:42 31° NNW 16:47:38 13° NE
SL-14 R/B 3.2 16:41:48 10° S 16:45:49 83° E 16:49:48 10° N
Cosmos 2074 Rocket 4.3 16:39:43 10° SSW 16:46:01 75° W 16:52:20 10° N
Cosmos 2219 3.7 16:41:32 10° S 16:46:42 40° ESE 16:51:55 10° NE
Cosmos 1455 3.8 16:44:56 10° NNE 16:47:13 15° ENE 16:49:29 10° ESE
Cosmos 1626 2.0 16:44:08 10° S 16:47:48 79° E 16:51:32 10° N
USA 32 4.5 16:43:20 10° SSE 16:48:09 39° E 16:52:59 10° NNE
USA 234 4.0 16:42:53 10° SSE 16:49:17 58° SW 16:55:44 10° NW
FengYun 1-2 T 4.3 16:44:09 10° SSE 16:49:39 62° ENE 16:55:15 10° N
YAOGAN 6 2.6 16:46:39 10° SSE 16:50:17 61° ENE 16:53:56 10° N
Cosmos 1461 3.4 16:46:12 10° NW 16:50:32 68° WSW 16:55:01 10° SSE
NOAA 12 4.2 16:45:41 10° SSE 16:50:55 85° WSW 16:56:12 10° NNW
Cosmos 1602 Rocket 3.5 16:47:47 10° S 16:52:11 76° E 16:56:33 10° NNE
CZ-4C R/B 3.0 16:47:31 10° NW 16:54:46 78° NE 17:03:03 10° SE
Cosmos 1939 Rocket 3.6 16:58:02 10° SE 17:01:23 28° ENE 17:04:47 10° N
Cosmos 2297 Rocket 2.7 16:57:02 10° S 17:02:10 37° ESE 17:06:33 14° NE
COSMO-SKYMED 1 2.5 16:58:14 10° NNE 17:02:35 65° ESE 17:06:52 10° S
Cosmos 1980 3.8 16:58:28 10° NNW 17:04:06 57° ENE 17:09:41 10° SE
Starlink AQ 4.2 17:02:13 10° W 17:04:50 29° NNW 17:06:26 18° NNE
Starlink AS 4.2 17:04:31 10° W 17:07:06 28° NNW 17:08:36 18° NNE
Starlink BA 4.2 17:04:44 10° W 17:07:20 28° NNW 17:08:48 18° NNE
Starlink AU 4.2 17:04:58 10° W 17:07:33 28° NNW 17:09:01 18° NNE
Starlink AT 4.2 17:05:12 10° W 17:07:47 27° NNW 17:09:14 18° NNE
Nadezhda 3 Rocket 4.1 17:01:30 10° N 17:07:48 85° W 17:14:08 10° S
Starlink BB 4.3 17:05:26 10° W 17:08:01 27° NNW 17:09:28 18° NNE
Starlink BC 4.3 17:05:39 10° W 17:08:14 27° NNW 17:09:40 18° NNE
Starlink BK 4.3 17:05:53 10° W 17:08:28 27° NNW 17:09:53 18° NNE
Cosmos 1125 Rocket 3.6 17:03:21 10° SSW 17:08:33 76° WNW 17:13:46 10° NNE
Starlink AY 4.3 17:06:07 10° W 17:08:41 27° NNW 17:10:06 18° NNE
Starlink AW 4.3 17:06:20 10° W 17:08:55 27° NNW 17:10:19 18° NNE
Cosmos 1758 Rocket 3.7 17:04:56 10° SSE 17:09:04 48° E 17:13:14 10° NNE
Starlink BJ 4.3 17:06:33 10° W 17:09:07 27° NNW 17:10:31 19° NNE
Starlink AV 4.3 17:06:46 10° W 17:09:21 27° NNW 17:10:44 19° NNE
Starlink BD 4.3 17:07:00 10° W 17:09:34 27° NNW 17:10:57 19° NNE
Starlink BE 4.3 17:07:11 10° W 17:09:46 27° NNW 17:11:08 19° NNE
Okean-O 3.0 17:05:27 10° S 17:09:51 67° WSW 17:14:17 10° NNW
Starlink BM 4.3 17:07:26 10° W 17:10:01 27° NNW 17:11:22 19° NNE
Meteor 2-1 Rocket 4.1 17:04:36 10° N 17:10:08 77° E 17:15:40 10° SSE
Starlink AX 4.3 17:07:40 10° W 17:10:14 27° NNW 17:11:35 19° NNE
Starlink BH 4.3 17:07:54 10° W 17:10:29 27° NNW 17:11:49 19° NNE
Starlink AZ 4.3 17:08:07 10° W 17:10:41 27° NNW 17:12:01 19° NNE
Starlink BG 4.3 17:08:21 10° W 17:10:55 26° NNW 17:12:14 19° NNE
Starlink BF 4.3 17:08:34 10° W 17:11:08 26° NNW 17:12:27 19° NNE
Starlink BL 4.3 17:08:47 10° W 17:11:20 26° NNW 17:12:39 19° NNE
Starlink AH 4.3 17:09:01 10° W 17:11:34 26° NNW 17:12:52 19° NNE
Starlink AC 4.3 17:09:15 10° W 17:11:48 26° NNW 17:13:06 19° NNE
Starlink X 4.3 17:09:29 10° W 17:12:01 26° NNW 17:13:18 19° NNE
Starlink AE 4.3 17:09:40 10° W 17:12:13 26° NNW 17:13:29 19° NNE
Starlink Z 4.3 17:09:58 10° W 17:12:30 26° NNW 17:13:45 19° NNE
Starlink AK 4.3 17:10:10 10° W 17:12:42 26° NNW 17:13:57 19° NNE
Starlink AL 4.3 17:10:23 10° W 17:12:56 26° NNW 17:14:10 19° NNE
Starlink AD 4.3 17:10:37 10° W 17:13:09 26° NNW 17:14:23 19° NNE
Starlink Y 4.4 17:11:04 10° W 17:13:37 26° NNW 17:14:49 19° NNE
Starlink AG 4.4 17:11:20 10° W 17:13:52 26° NNW 17:15:03 19° NNE
Starlink W 4.4 17:11:32 10° W 17:14:04 26° NNW 17:15:16 19° NNE
Cosmos 2227 Rocket 2.6 17:08:58 10° S 17:14:14 42° ESE 17:18:07 18° NE
Starlink AJ 4.4 17:11:46 10° W 17:14:17 25° NNW 17:15:28 19° NNE
Starlink AM 4.4 17:12:16 10° W 17:14:47 25° NNW 17:15:56 20° NNE
Starlink AP 4.4 17:12:27 10° W 17:14:58 25° NNW 17:16:07 20° NNE
Starlink AA 4.4 17:12:42 10° W 17:15:13 25° NNW 17:16:22 20° NNE
Starlink AF 4.4 17:12:54 10° W 17:15:25 25° NNW 17:16:33 20° NNE
Cosmos 2219 Rocket 3.2 17:10:00 10° NW 17:15:28 50° WSW 17:20:53 10° S
Starlink AB 4.4 17:13:08 10° W 17:15:39 25° NNW 17:16:46 20° NNE
Starlink AN 4.4 17:13:22 10° W 17:15:53 25° NNW 17:17:00 20° NNE
NOSS 0 Rocket 4.0 17:09:51 10° NNW 17:16:08 87° WSW 17:22:19 10° SSE
NOAA 11 4.2 17:11:04 10° SSE 17:16:25 56° ENE 17:21:48 10° N
COSMOS 2428 3.7 17:12:18 10° NW 17:17:50 50° WSW 17:23:19 10° S
ATLAS CENTAUR R/B 3.6 17:17:52 10° N 17:18:38 11° NNE 17:18:38 11° NNE
Envisat 4.0 17:14:57 10° S 17:19:52 50° W 17:24:49 10° NNW
Starlink T 4.5 17:22:42 10° WNW 17:25:08 23° NNW 17:25:51 21° N
Starlink N 4.5 17:23:57 10° WNW 17:26:22 23° NNW 17:27:02 21° N
ISS -2.4 17:24:03 10° SSW 17:26:49 25° SE 17:26:49 25° SE
Cosmos 1703 4.1 17:23:55 10° SSE 17:26:51 30° ESE 17:26:51 30° ESE
Cosmos 1269 Rocket 3.9 17:22:16 10° NNW 17:27:35 87° ENE 17:32:52 10° SSE
Cosmos 2341 Rocket 4.0 17:21:23 10° S 17:27:46 83° E 17:34:10 10° N
CZ-4 R/B 1.5 17:24:33 10° S 17:28:34 78° WSW 17:32:41 10° NNW
SL-8 Rocket 4.0 17:23:52 10° S 17:30:04 63° E 17:36:17 10° NNE
Cosmos 1825 Rocket 3.4 17:30:28 10° S 17:34:49 83° E 17:39:11 10° N
Atlas Centaur 2 4.4 17:35:55 10° SSE 17:37:18 11° SSE 17:38:44 10° SE
ADEOS Rocket 3.5 17:31:22 10° NNE 17:37:39 46° E 17:44:31 10° S
SL-8 R/B 4.3 17:33:15 10° SSW 17:37:46 41° SE 17:38:53 35° ESE
Cosmos 44 3.7 17:33:55 10° S 17:38:08 35° ESE 17:38:13 35° ESE
CSL-04 Debris 4.3 17:44:08 10° S 17:49:30 73° WSW 17:54:55 10° NNW
Meteor 2-10 Rocket 3.4 17:45:45 10° N 17:51:09 79° E 17:56:18 10° SSE
ERBS 2.4 17:49:03 10° SW 17:52:10 68° WNW 17:52:10 68° WNW
USA 267 4.4 17:54:02 21° NNE 17:57:08 31° N 18:02:41 10° WNW
CZ-2D R/B 3.7 17:54:50 10° S 17:58:36 60° W 18:02:25 10° NNW
SL-08 R/B 4.5 17:53:12 10° S 17:59:18 59° E 18:05:34 10° NNE
Cosmos 2218 Rocket 4.0 17:54:40 10° S 18:01:00 89° E 18:07:26 10° N
Ariane Rocket 2.8 17:59:58 23° SSE 18:03:07 69° ENE 18:08:11 10° N
IRS-1A Rocket 4.2 17:58:59 10° SSE 18:04:43 67° ENE 18:10:23 10° N
Cosmos 2237 Rocket 3.0 18:00:38 10° NW 18:06:04 51° WSW 18:11:29 10° S
Meteor 1-11 4.1 18:02:34 10° S 18:08:05 62° E 18:08:34 60° ENE
Cosmos 864 Rocket 4.4 18:03:24 10° S 18:09:32 87° W 18:15:43 10° N
YAOGAN 1 4.1 18:05:55 10° SSW 18:09:55 36° W 18:13:56 10° NNW
H-2A R/B 3.9 18:15:09 17° N 18:15:09 17° N 18:16:25 10° N
Cosmos 1328 4.3 18:13:15 10° SSW 18:16:54 58° WSW 18:16:54 58° WSW
MOS 1 4.2 18:19:36 69° ENE 18:19:36 69° ENE 18:25:12 10° N
Cosmos-2242 4.5 18:16:07 10° NNW 18:20:06 36° W 18:24:01 10° SSW
Cosmos 1455 3.5 18:19:28 10° NNW 18:23:03 39° W 18:26:35 10° SSW
Cosmos 2251 Rocket 3.7 18:19:47 10° NNW 18:24:10 61° N 18:24:10 61° N
SL-16 R/B 2.0 18:21:18 10° NNW 18:27:01 89° ENE 18:27:14 83° SSE
Cosmos 2082 3.7 18:28:40 10° SSW 18:34:16 74° WNW 18:34:40 71° NNW
DELTA 2 R/B (1) 4.0 18:29:49 10° WSW 18:34:49 53° SSW 18:34:49 53° SSW
Cosmos 2297 Rocket 3.5 18:41:02 10° WSW 18:46:12 36° NW 18:48:25 26° NNW
Cosmos 2227 Rocket 3.7 18:53:22 10° WSW 18:58:24 32° NW 18:59:59 28° NNW
